Flag for Venezuela Weather past 2 weeks in Barquisimeto, Venezuela

Now
88 °F

Scattered clouds.


Feels Like: 89 °F
Forecast: 77 / 96 °F
Wind: 14 mph from South

Location: Barquisimeto Airport

Current Time: Apr 28, 2015 at 11:01:30 AM

Latest Report: Apr 28, 2015 at 10:30 AM


Visibility: N/A

Pressure: 29.98 "Hg

Humidity: 46%

Dew point: 64 °F

Location of BarquisimetoLocation

Historic Weather in Barquisimeto — Graph

°F

Barquisimeto temperature yesterday

Maximum temperature yesterday: 93 °F (at 2:30 PM)
Minimum temperature yesterday: 72 °F (at 5:30 AM)
Average temperature yesterday: 83 °F

Past Weeks' High & Low Weather Summary

 TemperatureHumidityPressure
High93 °F (Apr 27, 2:30 PM)100% (Apr 25, 9:30 AM)30.07 "Hg (Apr 25, 9:30 AM)
Low46 °F (Apr 25, 9:30 AM)34% (Apr 27, 2:30 PM)29.86 "Hg (Apr 27, 4:30 PM)
Average79 °F69%29.99 "Hg
* Reported Apr 13 9:30 AM — Apr 28 9:30 AM, Barquisimeto, Weather by CustomWeather, © 2015

Note: Actual official high and low records may vary slightly from our data, if they occured in-between our weather recording intervals... More about our weather records

Advertising

Barquisimeto weather history for previous 24 hours

 ConditionsComfort  
Time TempWeatherWind HumidityBarometerVisibility
9:30 AM
Tue, Apr 28
86 °FPassing clouds.14 mph52%29.98 "HgN/A
8:30 AM84 °FPassing clouds.9 mph58%29.98 "HgN/A
7:30 AM79 °FPassing clouds.2 mph74%29.98 "HgN/A
6:30 AM72 °FPassing clouds.No wind88%29.98 "HgN/A
5:30 AM72 °FPassing clouds.2 mph88%29.95 "HgN/A
4:30 AM72 °FPassing clouds.3 mph88%29.95 "HgN/A
1:30 AM77 °FClear.No wind79%29.95 "Hg10 mi
10:30 PM
Mon, Apr 27
79 °FClear.6 mph74%29.95 "Hg10 mi
9:30 PM81 °FClear.6 mph70%29.95 "Hg10 mi
8:30 PM82 °FClear.9 mph62%29.92 "Hg10 mi
7:30 PM84 °FClear.6 mph55%29.92 "Hg10 mi
6:30 PM86 °FPassing clouds.9 mph49%29.89 "HgN/A
5:30 PM90 °FPassing clouds.13 mph41%29.86 "HgN/A
4:30 PM91 °FPassing clouds.15 mph36%29.86 "HgN/A
3:30 PM91 °FPassing clouds.17 mph36%29.89 "HgN/A
2:30 PM93 °FPassing clouds.15 mph34%29.89 "HgN/A
1:30 PM90 °FPassing clouds.17 mph41%29.92 "HgN/A
12:30 PM90 °FScattered clouds.12 mph43%29.95 "HgN/A
11:30 AM88 °FPassing clouds.22 mph49%29.98 "HgN/A
Weather by CustomWeather, © 2015

See weather overviewHow to use our weather pages